Probability
0 0 0 0 0 0 0 0 0 0 0 0 0 0 0 0 0 0 0 0 0 0 0 0 0 0 0 0 0 0 0 0 0 0 0 0 0 0
0 0 0 0 0 0 0 0 0 0 0 0 0 0 0 0 0 0 0 0 0 0 0 0 0 0 0 0 0 0 0 0 0 0 0 0 0 0
0 0 0 0 0 0 0 0 0 0 0 0 0 0 0 0 0 0 0 0 0 0 0 0 0 0 0 0 0 0 0 0 0 0 0 0 0 0
0 0 0 0 0 0 0 0 0 0 0 0 0 0 0 0 0 0 0 0 0 0 0 0 0 0 0 0 0 0 0 0 0 0 0 0 0 0
0 0 0 0 0 0 0 0 0 0 0 0 0 0 0 0 0 0 0 0 0 0 0 0 0 0 0 0 0 0 0 0 0 0 0 0 0 0
0 0 0 0 0 0 0 0 0 0 0 0 0 0 0 0 0 0 0 0 0 0 0 0 0 0 0 0 0 0 0 0 0 0 0 0 0 0
0 0 0 0 0 0 0 0 0 0 0 0 0 0 0 0 0 0 0 0 0 0 0 0 0 0 0 0 0 0 0 0 0 0 0 0 0 0
0 0 0 0 0 0 0 0 0 0 0 0 0 0 0 0 0 0 0 0 0 0 0 0 0 0 0 0 0 0 0 0 0 0 0 0 0 0
0 0 0 0 0 0 0 0 0 0 0 0 0 0 0 0 0 0 0 0 0 0 0 0 0 0 0 0 0 0 0 0 0 0 0 0 0 0
0 0 0 0 0 0 0 0 0 0 0 0 0 0 0 0 0 0 0 0 0 0 0 0 0 0 0 0 0 0 0 0 0 0 0 0 0 0
0 0 0 0 0 0 0 0 0 0 0 0 0 0 0 0 0 0 0 0 0 0 0 0 0 0 0 0 0 0 0 0 0 0 0 0 0 0
0 0 0 0 0 0 0 0 0 0 0 0 0 0 0 0 0 0 0 0 0 0 0 0 0 0 0 0 0 0 0 0 0 0 0 0 0 0
0 0 0 0 0 0 0 0 0 0 0 0 0 0 0 0 0 0 0 0 0 0 0 0 0 0 0 0 0 0 0 0 0 0 0 0 0 0
0 0 0 0 0 0 0 0 0 0 0 0 0 0 0 0 0 0 0 0 0 0 0 0 0 0 0 0 0 0 0 0 0 0 0 0 0 0
0 0 0 0 0 0 0 0 0 0 0 0 0 0 0 0 0 0 0 0 0 0 0 0 0 0 0 0 0 0 0 0 0 0 0 0 0 0
0 0 0 0 0 0 0 0 0 0 0 0 0 0 0 0 0 0 0 0 0 0 0 0 0 0 0 0 0 0 0 0 0 0 0 0 0 0
0 0 0 0 0 0 0 0 0 0 0 0 0 0 0 0 0 0 0 0 0 0 0 0 0 0 0 0 0 0 0 0 0 0 0 0 0 0
0 0 0 0 0 0 0 0 0 0 0 0 0 0 0 0 0 0 0 0 0 0 0 0 0 0 0 0 0 0 0 0 0 0 0 0 0 0
0 0 0 0 0 0 0 0 0 0 0 0 0 0 0 0 0 0 0 0 0 0 0 0 0 0 0 0 0 0 0 0 0 0 0 0 0 0
0 0 0 0 0 0 0 0 0 0 0 0 0 0 0 0 0 0 0 0 0 0 0 0 0 0 0 0 0 0 0 0 0 0 0 0 0 0
0 0 0 0 0 0 0 0 0 0 0 0 0 0 0 0 0 0 0 0 0 0 0 0 0 0 0 0 0 0 0 0 0 0 0 0 0 0
0 0 0 0 0 0 0 0 0 0 0 0 0 0 0 0 0 0 0 0 0 0 0 0 0 0 0 0 0 0 0 0 0 0 0 0 0 0
0 0 0 0 0 0 0 0 0 0 0 0 0 0 0 0 0 0 0 0 0 0 0 0 0 0 0 0 0 0 0 0 0 0 0 0 0 0
Height
5695 5697 5699 5700 5702 5703 5705 5706 5708 5709 5711 5711 5712 5713 5713 5713 5713 5713 5712 5712 5711 5710 5709 5707 5706 5705 5704 5702 5701 5700 5699 5697 5696 5695 5693 5692 5691 5690
5683 5685 5687 5688 5690 5692 5693 5694 5695 5697 5698 5700 5700 5700 5700 5701 5700 5700 5699 5698 5696 5695 5694 5693 5692 5690 5689 5688 5687 5685 5684 5683 5681 5679 5678 5676 5675 5674
5671 5673 5675 5677 5678 5679 5681 5682 5683 5684 5686 5687 5687 5687 5688 5688 5687 5686 5685 5684 5682 5681 5680 5678 5677 5676 5675 5674 5672 5671 5669 5667 5665 5663 5661 5659 5658 5657
5659 5661 5663 5664 5666 5667 5668 5670 5671 5672 5673 5674 5674 5674 5674 5674 5673 5672 5671 5669 5668 5667 5665 5664 5662 5661 5660 5658 5657 5655 5653 5651 5649 5647 5645 5643 5641 5639
5647 5649 5650 5652 5653 5654 5656 5657 5658 5659 5660 5660 5661 5661 5660 5660 5659 5658 5656 5655 5653 5652 5651 5649 5648 5646 5644 5643 5641 5639 5636 5635 5632 5630 5628 5626 5624 5622
5635 5636 5638 5639 5641 5642 5643 5644 5645 5645 5646 5646 5647 5647 5646 5645 5645 5644 5643 5640 5639 5637 5636 5634 5632 5630 5628 5627 5624 5622 5619 5617 5615 5613 5611 5609 5607 5606
5623 5624 5626 5627 5628 5629 5630 5631 5632 5632 5633 5633 5633 5632 5632 5631 5630 5629 5628 5626 5625 5623 5621 5619 5617 5615 5613 5610 5607 5604 5603 5600 5598 5596 5594 5593 5591 5589
5611 5612 5613 5615 5615 5616 5617 5618 5618 5618 5619 5619 5619 5618 5617 5616 5615 5613 5612 5612 5611 5610 5606 5605 5602 5600 5597 5594 5591 5588 5586 5584 5582 5580 5578 5577 5575 5573
5599 5600 5601 5602 5602 5603 5604 5604 5604 5604 5604 5604 5604 5603 5602 5601 5600 5600 5598 5596 5595 5593 5590 5590 5587 5584 5581 5578 5574 5572 5570 5568 5566 5564 5563 5561 5559 5558
5587 5588 5589 5590 5590 5590 5590 5591 5591 5590 5590 5590 5590 5589 5587 5586 5585 5584 5582 5581 5580 5577 5573 5573 5572 5570 5567 5563 5559 5556 5554 5552 5550 5548 5546 5545 5543 5542
5575 5576 5576 5577 5577 5577 5577 5578 5578 5577 5576 5575 5575 5574 5573 5571 5570 5569 5567 5565 5565 5563 5559 5557 5556 5554 5552 5549 5545 5541 5538 5536 5534 5532 5530 5529 5527 5526
5563 5563 5564 5564 5564 5564 5564 5564 5564 5564 5563 5562 5561 5560 5559 5558 5556 5554 5552 5550 5548 5548 5545 5542 5541 5537 5537 5536 5531 5527 5523 5521 5519 5517 5515 5513 5511 5509
5551 5551 5551 5551 5552 5551 5551 5551 5551 5550 5549 5549 5548 5547 5545 5544 5542 5540 5538 5536 5534 5532 5530 5527 5525 5522 5520 5519 5518 5513 5509 5507 5504 5502 5500 5498 5496 5494
5539 5539 5540 5540 5539 5539 5538 5538 5538 5537 5537 5536 5535 5534 5533 5531 5529 5527 5525 5523 5520 5518 5515 5512 5510 5508 5505 5503 5502 5499 5495 5492 5490 5488 5485 5483 5481 5478
5527 5527 5527 5527 5527 5526 5526 5526 5525 5524 5524 5523 5522 5521 5520 5518 5516 5514 5512 5509 5507 5504 5501 5498 5495 5493 5490 5488 5486 5484 5482 5479 5476 5473 5471 5469 5467 5464
5515 5516 5516 5515 5515 5515 5514 5514 5513 5512 5512 5511 5510 5508 5507 5505 5503 5501 5498 5496 5494 5492 5488 5485 5481 5478 5476 5473 5471 5469 5467 5465 5463 5460 5457 5455 5453 5450
5504 5504 5504 5504 5504 5504 5503 5502 5501 5500 5499 5498 5497 5496 5494 5492 5490 5487 5485 5483 5481 5479 5476 5472 5468 5465 5462 5460 5458 5455 5453 5451 5448 5446 5444 5442 5440 5437
5492 5493 5493 5493 5492 5492 5492 5491 5489 5488 5487 5485 5484 5483 5481 5479 5477 5474 5471 5469 5467 5465 5462 5459 5455 5452 5450 5447 5445 5442 5440 5438 5436 5434 5431 5429 5428 5425
5481 5481 5481 5481 5481 5481 5480 5479 5478 5476 5475 5473 5472 5470 5468 5466 5463 5461 5459 5456 5454 5452 5449 5446 5442 5439 5437 5437 5435 5431 5428 5426 5424 5422 5419 5417 5415 5413
5470 5470 5470 5470 5469 5469 5468 5467 5466 5464 5462 5461 5459 5457 5455 5453 5451 5448 5446 5443 5441 5439 5436 5433 5430 5428 5426 5424 5423 5421 5416 5414 5412 5410 5408 5406 5404 5403
5459 5459 5459 5458 5458 5457 5456 5454 5453 5452 5450 5448 5447 5444 5442 5440 5438 5436 5434 5431 5429 5427 5425 5422 5419 5417 5414 5412 5411 5410 5407 5403 5400 5399 5397 5395 5394 5393
5448 5447 5447 5446 5445 5444 5443 5441 5440 5439 5437 5436 5434 5432 5430 5428 5426 5424 5422 5420 5417 5415 5413 5410 5408 5405 5403 5402 5400 5398 5397 5394 5391 5389 5386 5384 5382 5382
5435 5435 5434 5433 5432 5431 5430 5429 5427 5426 5424 5423 5421 5420 5418 5416 5414 5412 5410 5408 5406 5404 5402 5399 5397 5395 5393 5391 5390 5388 5386 5385 5383 5381 5378 5375 5373 5372
Wind_Speed
47 46 46 46 46 46 46 47 47 47 46 47 47 47 47 48 48 48 48 48 49 50 51 51 51 51 52 52 52 50 50 51 51 52 52 53 53 53
45 46 46 46 47 47 47 47 47 47 47 47 47 47 47 48 48 49 50 49 50 51 51 52 52 52 52 51 52 51 51 52 52 53 54 55 55 55
46 46 47 48 48 48 48 48 48 48 47 47 47 47 48 48 48 49 50 51 51 51 52 52 53 53 53 53 53 53 53 54 55 55 55 56 56 55
47 47 47 47 48 48 49 49 50 50 49 49 48 49 50 50 50 51 52 52 52 51 52 52 53 54 55 55 56 56 56 56 57 57 56 56 56 55
46 46 46 47 47 48 49 50 51 51 50 51 50 50 51 52 53 53 52 52 53 52 52 52 54 55 55 56 57 58 58 58 58 57 56 56 55 56
47 47 47 48 48 48 49 50 51 51 51 52 52 52 52 52 53 53 52 52 52 52 52 53 54 55 56 56 57 58 59 58 57 57 56 56 56 55
47 46 47 49 49 50 50 50 52 52 53 53 54 54 53 53 53 53 53 52 52 52 52 54 54 55 56 57 58 58 58 57 56 56 56 56 55 54
46 46 47 47 48 50 51 52 52 53 53 54 54 55 55 55 54 53 53 51 51 52 53 53 55 55 56 56 57 57 57 57 56 55 55 55 54 54
46 46 46 47 48 49 50 50 51 51 52 53 54 55 55 55 55 53 53 54 53 53 53 53 54 55 55 55 55 56 56 56 56 55 54 54 53 53
45 45 45 45 45 46 47 48 49 50 52 52 53 53 54 54 54 55 55 55 55 55 54 54 54 54 54 54 54 55 55 55 54 54 54 53 53 52
44 45 45 46 46 47 47 47 49 50 50 50 50 51 52 53 53 54 54 55 55 54 55 55 53 53 53 52 52 53 54 53 53 52 52 53 53 53
44 45 45 46 46 47 47 47 47 48 48 49 50 50 50 51 52 53 53 53 54 54 54 54 54 54 53 51 51 51 51 51 51 51 51 52 52 52
43 44 44 44 45 45 46 46 46 47 48 48 48 49 49 50 51 51 51 52 53 53 53 53 53 53 53 52 51 50 50 50 50 51 51 52 52 52
43 43 43 43 44 44 44 44 45 46 47 47 48 48 48 48 49 49 50 51 51 51 51 52 52 52 52 52 51 50 50 49 50 50 51 52 52 51
42 42 42 42 42 42 42 43 44 44 45 45 45 46 47 47 48 49 49 50 50 50 50 51 52 52 52 51 50 49 49 49 50 51 51 50 50 49
41 42 41 41 41 41 41 42 42 43 44 44 44 45 46 47 48 49 49 49 48 48 49 50 51 51 50 49 49 48 47 47 48 49 50 49 49 49
41 41 40 40 40 40 40 40 41 41 42 43 44 45 46 47 49 49 49 48 48 48 48 49 49 49 48 48 47 47 46 46 47 47 48 47 47 46
39 39 39 39 39 39 39 40 40 41 42 43 44 46 46 47 48 48 48 47 47 47 47 48 48 47 46 45 45 45 44 44 45 45 45 44 43 42
38 38 38 38 39 39 40 41 41 42 43 44 44 45 46 47 47 47 46 47 46 46 46 46 46 45 44 42 42 43 43 43 43 43 43 41 40 39
37 38 38 38 39 40 41 42 43 44 44 45 45 46 46 46 46 45 45 45 45 45 45 45 44 43 42 41 41 41 41 41 41 41 40 39 38 37
37 38 39 39 40 41 42 43 44 45 45 46 45 45 45 45 44 43 43 43 43 43 43 43 43 42 41 40 39 38 38 39 39 39 38 37 37 36
38 39 40 41 42 43 44 45 45 44 44 44 44 44 43 43 42 42 42 41 41 41 41 40 40 39 38 37 37 36 36 36 36 35 35 35 35 34
38 39 40 41 42 43 43 43 43 43 43 43 43 43 42 41 41 40 40 40 39 39 38 37 37 36 35 35 34 34 33 33 32 31 31 32 33 33
Wind_Direction
256 256 257 258 260 261 261 261 262 263 263 264 266 267 269 271 272 273 276 277 279 279 279 279 279 279 279 279 280 281 281 280 280 280 281 280 281 281
257 257 258 259 260 261 261 261 262 263 263 264 266 268 270 272 273 274 275 277 278 278 278 279 279 280 280 279 280 280 281 281 281 281 281 281 281 281
257 258 259 259 260 261 261 261 263 264 264 264 266 268 270 272 273 274 276 277 278 278 278 278 278 279 280 279 280 281 280 281 282 283 282 281 280 279
258 259 259 260 261 262 262 263 264 264 264 265 267 269 271 274 275 275 276 277 277 277 277 277 278 279 280 281 281 282 282 281 282 282 281 281 280 278
259 259 260 261 262 263 264 264 265 266 266 267 268 270 272 274 275 276 276 276 276 276 277 277 278 280 281 281 282 282 282 281 281 282 281 280 280 280
259 260 261 262 263 264 265 266 266 267 267 268 270 271 273 274 275 276 275 276 276 276 277 278 279 281 281 281 282 282 282 282 282 281 281 280 280 280
259 260 261 262 263 265 266 266 267 268 268 269 270 272 272 273 274 274 274 275 276 276 277 278 279 280 281 281 281 281 281 282 282 281 281 281 280 280
260 261 262 263 264 265 266 267 267 268 269 271 271 272 273 274 273 274 274 275 277 277 277 278 279 281 282 282 282 281 281 281 282 282 281 281 280 280
261 263 263 264 266 266 267 268 268 270 271 272 273 273 274 274 274 274 275 277 279 279 278 279 280 281 282 282 282 281 281 281 281 282 281 281 280 280
263 264 266 266 267 267 268 269 269 271 272 272 273 274 274 274 274 276 277 278 280 280 280 281 281 282 282 282 282 282 281 280 280 281 281 281 280 281
265 266 267 268 268 269 270 270 270 272 273 273 274 274 274 275 276 278 279 280 280 280 281 282 283 282 282 283 283 283 282 282 281 281 281 281 282 282
266 267 268 270 271 272 271 271 271 272 273 274 274 274 275 277 279 280 280 281 282 283 283 283 284 284 283 283 284 284 284 284 283 283 282 283 283 283
266 266 268 269 271 272 271 271 272 273 274 273 274 275 276 278 280 281 281 282 283 284 284 285 285 285 286 286 285 285 285 284 284 283 283 284 284 284
267 267 268 269 270 272 271 272 274 275 275 274 275 275 277 278 280 281 282 284 285 285 285 286 286 287 287 287 286 285 285 284 284 283 283 284 284 284
268 268 268 269 270 271 272 273 275 276 276 275 276 276 277 279 281 282 284 284 285 286 287 286 287 288 288 287 287 286 285 285 285 285 285 285 285 285
269 269 269 268 270 272 273 274 275 276 276 276 277 278 279 280 282 284 285 284 285 286 287 288 288 289 288 287 287 286 285 285 285 286 286 287 286 286
269 269 269 268 270 272 275 275 276 277 277 278 279 280 281 282 283 284 285 285 286 287 287 288 289 289 288 287 286 286 285 285 285 286 287 287 287 287
269 269 269 270 271 273 274 276 278 280 279 280 281 282 283 285 286 285 284 285 286 287 289 290 290 289 288 286 286 286 286 285 286 286 287 287 288 288
271 271 271 271 273 274 275 277 279 280 280 281 282 284 285 287 287 285 284 285 286 287 289 290 290 289 287 285 285 285 286 286 286 286 287 289 289 289
272 272 272 273 275 276 277 278 279 280 280 282 283 285 287 287 287 286 285 285 286 286 288 289 289 288 287 286 285 286 286 287 286 287 288 289 290 290
272 273 273 274 275 277 279 280 280 280 281 282 284 285 286 286 286 286 285 285 285 286 286 286 287 287 287 286 286 286 287 288 288 288 289 289 289 290
273 274 275 276 277 278 279 280 281 281 281 282 284 285 285 285 285 286 286 286 286 285 285 286 286 287 286 285 286 287 287 288 289 290 291 291 293 293
274 275 277 278 279 280 280 281 281 281 281 282 284 284 284 284 284 285 286 286 286 285 285 286 286 286 285 285 286 287 288 290 291 291 291 291 293 295